This is the latest recevied weather packets stored in our database for station/object JF2ZGN-13. If no packets are shown the sender has not sent any weather packets the latest 10 day(s).
| Time | Temp. | Humidity | Pressure | Rain* | Wind** | Luminosity | Snow |
|---|---|---|---|---|---|---|---|
| 1787637981 | 24.44° C | 67% | 910 hPa | 0 mm | - | - | - |
| 1787637381 | 24.44° C | 68% | 910 hPa | 0 mm | - | - | - |
| 1787636780 | 25° C | 69% | 910.1 hPa | 0 mm | - | - | - |
| 1787636179 | 25° C | 64% | 910 hPa | 0 mm | - | - | - |
| 1787635579 | 25° C | 67% | 910.4 hPa | 0 mm | - | - | - |
| 1787634979 | 25° C | 66% | 910.5 hPa | 0 mm | - | - | - |
| 1787634378 | 24.44° C | 65% | 910.6 hPa | 0 mm | - | - | - |
| 1787633777 | 24.44° C | 70% | 910.7 hPa | 0 mm | - | - | - |
| 1787633177 | 24.44° C | 68% | 910.8 hPa | 0 mm | - | - | - |
| 1787632577 | 24.44° C | 70% | 910.8 hPa | 0 mm | - | - | - |
| 1787631976 | 25° C | 70% | 910.8 hPa | 0 mm | - | - | - |
| 1787631376 | 24.44° C | 71% | 910.9 hPa | 0 mm | - | - | - |
| 1787630776 | 24.44° C | 70% | 910.9 hPa | 0 mm | - | - | - |
| 1787630175 | 24.44° C | 72% | 911 hPa | 0 mm | - | - | - |
| 1787629575 | 23.89° C | 70% | 911 hPa | 0 mm | - | - | - |
| 1787628974 | 23.89° C | 74% | 911.1 hPa | 0 mm | - | - | - |
| 1787628374 | 23.89° C | 75% | 911.3 hPa | 0 mm | - | - | - |
| 1787627773 | 23.33° C | 74% | 911.4 hPa | 0 mm | - | - | - |
| 1787627173 | 23.33° C | 78% | 911.6 hPa | 0 mm | - | - | - |
| 1787626572 | 22.78° C | 80% | 911.9 hPa | 0 mm | - | - | - |
| 1787625972 | 23.33° C | 78% | 911.9 hPa | 0 mm | - | - | - |
| 1787625371 | 23.33° C | 80% | 911.9 hPa | 0 mm | - | - | - |
| 1787624771 | 23.33° C | 80% | 911.6 hPa | 0 mm | - | - | - |
| 1787624170 | 22.78° C | 80% | 911.9 hPa | 0 mm | - | - | - |
| 1787623570 | 22.78° C | 80% | 912 hPa | 0 mm | - | - | - |
* Rain since midnight (hover to see other rain measurements)
** Current wind speed in m/s (hover to see current wind gust speed)